Simultaneous Nadir Overpasses (SNOs) Predictions

Prediction of SNOs between FY3D and NOAA-19 Satellite Orbit:

Table of predicted SNOs for the next 14.0 days since TLE Epoch: 4/27/2024
Index Date (FY3D) Time (FY3D) Lat,Lon (FY3D) SZA (FY3D ) Date (NOAA-19) Time (NOAA-19) Lat,Lon (NOAA-19) SZA (NOAA-19 ) Distance(km) Time Diff (sec)
1 04/30/2024 21:05:36 75.88,-137.72 60.67 04/30/2024 21:04:25 75.90,-139.11 60.71 37.95 71
2 04/30/2024 21:56:25 -76.09, 28.87 119.13 04/30/2024 21:55:24 -76.08, 28.77 119.13 2.78 61
3 04/30/2024 22:47:12 76.11,-163.92 60.89 04/30/2024 22:46:19 76.09,-163.94 60.87 2.78 53
4 04/30/2024 23:37:56 -76.09, 3.46 119.14 04/30/2024 23:37:21 -76.13, 3.46 119.11 4.03 35
5 05/01/2024 00:28:43 76.12, 170.68 60.88 05/01/2024 00:28:16 76.14, 170.75 60.89 2.82 27
6 05/01/2024 01:19:28 -76.15, -22.11 119.11 05/01/2024 01:19:19 -76.14, -22.01 119.12 2.82 9
7 05/01/2024 02:10:14 76.13, 145.27 60.86 05/01/2024 02:10:14 76.14, 145.28 60.88 1.62 0
8 05/01/2024 03:00:59 -76.15, -47.51 119.12 05/01/2024 03:01:17 -76.14, -47.48 119.14 1.67 18
9 05/01/2024 03:51:45 76.14, 119.86 60.85 05/01/2024 03:52:12 76.15, 119.81 60.86 1.87 27
10 05/01/2024 04:42:30 -76.16, -72.92 119.14 05/01/2024 04:43:15 -76.15, -72.95 119.15 1.85 45
11 05/01/2024 05:33:16 76.14, 94.46 60.84 05/01/2024 05:34:10 76.15, 94.34 60.85 3.25 54
12 05/01/2024 06:24:01 -76.17, -98.32 119.15 05/01/2024 06:25:13 -76.15, -98.42 119.17 3.14 72
13 05/01/2024 07:14:53 76.42, 68.06 61.10 05/01/2024 07:16:03 76.38, 69.71 61.05 43.39 70



Historial Predications of SNOs between FY3D and NOAA-19
